GFSSGP_prec_pwat_021.txt.gz
Precipitable_Water
0.38 0.49 0.57 0.52 0.26 0.23 0.17 0.19 0.25 0.20 0.21 0.26 0.29 0.27 0.26 0.27 0.23 0.18 0.49 0.62 0.68 0.78 0.89 1.05 1.12 1.13 1.17 1.24 1.27 1.31 1.39 1.43 1.43 1.43 1.39 1.37 1.33 1.29 1.27 1.29 1.46 1.47 1.34 1.31 1.22 1.18 1.13 1.12 1.03
0.44 0.49 0.51 0.37 0.19 0.13 0.14 0.21 0.20 0.22 0.26 0.27 0.27 0.26 0.24 0.20 0.32 0.36 0.40 0.58 0.67 0.78 0.89 0.99 1.06 1.10 1.15 1.19 1.21 1.24 1.26 1.26 1.27 1.26 1.23 1.22 1.22 1.19 1.15 1.19 1.21 1.23 1.33 1.29 1.28 1.13 1.07 1.01 0.97
0.46 0.49 0.32 0.23 0.17 0.12 0.13 0.19 0.21 0.25 0.29 0.26 0.22 0.28 0.25 0.23 0.33 0.33 0.46 0.54 0.65 0.73 0.89 0.92 1.03 1.10 1.12 1.14 1.15 1.16 1.14 1.14 1.15 1.14 1.11 1.14 1.15 1.14 1.07 1.03 1.10 1.23 1.23 1.19 1.16 1.11 0.97 0.94 0.88
0.39 0.38 0.31 0.16 0.13 0.16 0.16 0.18 0.23 0.25 0.29 0.29 0.27 0.23 0.28 0.35 0.35 0.41 0.50 0.55 0.59 0.69 0.85 0.91 0.97 1.08 1.13 1.17 1.16 1.11 1.09 1.10 1.09 1.04 1.05 1.10 1.10 1.05 1.00 1.05 1.07 1.12 1.11 1.09 1.05 1.04 0.92 0.83 0.73
0.36 0.28 0.18 0.16 0.16 0.19 0.23 0.23 0.25 0.24 0.25 0.26 0.27 0.23 0.24 0.33 0.49 0.46 0.49 0.55 0.54 0.64 0.80 0.88 0.93 1.00 1.07 1.11 1.13 1.10 1.08 1.07 1.06 1.01 1.04 1.06 1.02 0.98 0.97 1.00 1.03 1.05 1.00 0.95 0.97 0.95 0.84 0.74 0.60
0.22 0.23 0.14 0.12 0.16 0.20 0.25 0.26 0.26 0.23 0.24 0.23 0.22 0.22 0.24 0.37 0.42 0.46 0.54 0.54 0.62 0.64 0.77 0.86 0.90 0.95 1.00 1.05 1.09 1.11 1.12 1.11 1.09 1.07 1.07 1.03 1.02 1.03 0.97 0.87 0.90 0.93 0.93 0.87 0.86 0.83 0.76 0.65 0.48
0.19 0.15 0.13 0.15 0.17 0.19 0.24 0.28 0.24 0.23 0.23 0.23 0.25 0.19 0.25 0.33 0.39 0.45 0.55 0.59 0.60 0.68 0.72 0.79 0.87 0.94 0.99 1.03 1.06 1.09 1.11 1.13 1.12 1.09 1.12 1.10 1.10 1.10 1.03 0.99 0.88 0.80 0.84 0.83 0.80 0.74 0.67 0.53 0.38
0.24 0.18 0.14 0.17 0.17 0.19 0.27 0.28 0.30 0.27 0.25 0.32 0.31 0.22 0.23 0.31 0.39 0.44 0.50 0.55 0.58 0.60 0.68 0.72 0.80 0.89 0.96 1.00 1.04 1.08 1.10 1.12 1.12 1.10 1.11 1.10 1.12 1.14 1.07 1.04 0.99 0.86 0.78 0.75 0.76 0.69 0.60 0.46 0.34
0.28 0.14 0.12 0.17 0.19 0.23 0.30 0.28 0.33 0.35 0.30 0.31 0.32 0.30 0.32 0.37 0.42 0.43 0.43 0.48 0.52 0.60 0.67 0.77 0.78 0.83 0.88 0.92 0.97 1.04 1.08 1.11 1.12 1.10 1.12 1.11 1.11 1.11 1.09 1.05 1.07 0.98 0.84 0.75 0.74 0.66 0.57 0.45 0.34
0.19 0.14 0.14 0.24 0.26 0.26 0.29 0.29 0.30 0.30 0.30 0.30 0.32 0.36 0.38 0.38 0.40 0.40 0.40 0.38 0.40 0.45 0.56 0.70 0.82 0.87 0.90 0.93 0.97 1.03 1.07 1.10 1.09 1.09 1.10 1.11 1.10 1.09 1.06 1.05 1.06 1.06 0.98 0.91 0.77 0.66 0.57 0.45 0.31
0.24 0.15 0.22 0.25 0.30 0.32 0.30 0.30 0.36 0.32 0.29 0.33 0.33 0.34 0.38 0.38 0.39 0.39 0.39 0.39 0.38 0.39 0.43 0.50 0.68 0.83 0.89 0.91 0.94 0.97 1.01 1.06 1.07 1.08 1.09 1.15 1.08 1.10 1.07 1.06 1.03 1.04 1.04 0.99 0.85 0.65 0.53 0.42 0.28
0.21 0.28 0.30 0.31 0.34 0.34 0.31 0.35 0.34 0.35 0.35 0.41 0.39 0.40 0.40 0.39 0.39 0.40 0.41 0.42 0.42 0.43 0.44 0.47 0.50 0.66 0.79 0.88 0.90 0.92 0.94 1.00 1.02 1.08 1.14 1.07 1.06 1.05 1.04 1.04 1.06 1.03 1.01 0.97 0.91 0.73 0.55 0.43 0.31
0.29 0.31 0.35 0.37 0.38 0.36 0.36 0.34 0.35 0.36 0.41 0.43 0.43 0.44 0.44 0.43 0.42 0.44 0.45 0.45 0.46 0.45 0.48 0.50 0.52 0.55 0.73 0.82 0.88 0.92 0.93 0.98 1.05 1.08 1.11 1.13 1.07 0.97 1.05 1.04 1.02 1.04 1.01 0.95 0.91 0.84 0.63 0.47 0.33
0.35 0.35 0.34 0.34 0.34 0.34 0.32 0.34 0.37 0.38 0.43 0.43 0.44 0.44 0.45 0.44 0.44 0.45 0.46 0.45 0.46 0.47 0.48 0.52 0.54 0.56 0.64 0.78 0.88 0.96 1.01 1.03 1.06 1.11 1.12 1.13 1.10 1.06 0.98 1.04 1.05 1.03 1.02 0.97 0.92 0.85 0.75 0.55 0.38
0.38 0.32 0.34 0.34 0.34 0.34 0.38 0.34 0.35 0.40 0.42 0.41 0.43 0.45 0.47 0.48 0.48 0.47 0.48 0.47 0.49 0.50 0.53 0.54 0.57 0.64 0.60 0.75 0.87 0.96 1.09 1.13 1.10 1.12 1.18 1.20 1.21 1.18 1.12 1.07 1.03 1.04 1.06 1.03 0.99 0.88 0.81 0.68 0.48
0.36 0.36 0.29 0.35 0.37 0.39 0.37 0.29 0.37 0.41 0.40 0.39 0.41 0.44 0.45 0.47 0.48 0.49 0.49 0.50 0.52 0.53 0.55 0.60 0.63 0.66 0.71 0.78 0.86 0.96 1.07 1.16 1.19 1.19 1.19 1.24 1.27 1.27 1.22 1.16 1.12 1.09 1.06 1.05 1.00 0.91 0.82 0.75 0.61
0.34 0.27 0.29 0.30 0.39 0.37 0.34 0.30 0.37 0.41 0.40 0.40 0.43 0.45 0.45 0.45 0.47 0.48 0.49 0.50 0.51 0.52 0.54 0.59 0.66 0.69 0.76 0.83 0.89 0.97 1.05 1.10 1.12 1.18 1.18 1.17 1.18 1.19 1.18 1.16 1.20 1.19 1.09 1.03 1.00 0.98 0.90 0.79 0.73
0.28 0.28 0.29 0.30 0.35 0.36 0.33 0.33 0.39 0.44 0.44 0.42 0.44 0.45 0.44 0.43 0.44 0.47 0.48 0.50 0.51 0.51 0.53 0.56 0.61 0.69 0.76 0.81 0.85 0.91 0.96 0.97 1.00 1.04 1.06 1.11 1.13 1.13 1.14 1.15 1.16 1.15 1.13 1.11 1.07 1.02 0.95 0.88 0.79
0.35 0.32 0.31 0.36 0.40 0.37 0.36 0.36 0.40 0.44 0.43 0.41 0.42 0.42 0.42 0.42 0.45 0.46 0.47 0.48 0.48 0.49 0.50 0.51 0.54 0.58 0.63 0.70 0.72 0.75 0.77 0.81 0.82 0.84 0.89 0.93 0.98 1.04 1.04 1.01 1.01 1.03 1.03 1.04 1.02 0.95 0.90 0.83 0.81
0.36 0.33 0.33 0.37 0.41 0.38 0.36 0.36 0.41 0.41 0.40 0.41 0.42 0.42 0.42 0.43 0.44 0.45 0.46 0.47 0.47 0.46 0.47 0.48 0.49 0.52 0.57 0.60 0.63 0.66 0.68 0.70 0.72 0.72 0.74 0.76 0.80 0.84 0.87 0.88 0.88 0.88 0.87 0.86 0.86 0.86 0.82 0.80 0.80
0.37 0.35 0.35 0.35 0.40 0.41 0.37 0.32 0.35 0.39 0.42 0.44 0.45 0.45 0.43 0.41 0.40 0.41 0.43 0.45 0.47 0.47 0.48 0.49 0.50 0.50 0.53 0.56 0.59 0.61 0.63 0.64 0.65 0.65 0.66 0.67 0.69 0.70 0.72 0.74 0.77 0.78 0.78 0.76 0.76 0.76 0.72 0.67 0.72
0.34 0.42 0.40 0.38 0.35 0.27 0.36 0.21 0.29 0.35 0.37 0.41 0.44 0.43 0.42 0.41 0.41 0.40 0.40 0.42 0.45 0.46 0.48 0.49 0.50 0.50 0.50 0.52 0.51 0.50 0.49 0.48 0.50 0.51 0.52 0.52 0.53 0.55 0.59 0.62 0.64 0.65 0.67 0.69 0.73 0.73 0.70 0.67 0.62
0.39 0.45 0.40 0.36 0.32 0.30 0.29 0.25 0.26 0.34 0.33 0.37 0.40 0.41 0.42 0.43 0.42 0.40 0.41 0.42 0.44 0.45 0.44 0.44 0.44 0.44 0.44 0.44 0.45 0.44 0.43 0.44 0.44 0.43 0.42 0.42 0.42 0.43 0.44 0.47 0.49 0.50 0.52 0.55 0.59 0.63 0.67 0.69 0.65
0.44 0.39 0.38 0.37 0.33 0.22 0.27 0.26 0.24 0.29 0.32 0.35 0.40 0.42 0.44 0.44 0.43 0.41 0.42 0.41 0.41 0.42 0.41 0.41 0.41 0.42 0.41 0.41 0.40 0.40 0.38 0.38 0.39 0.38 0.38 0.37 0.36 0.35 0.35 0.35 0.36 0.37 0.39 0.43 0.46 0.49 0.52 0.56 0.60
0.40 0.36 0.28 0.25 0.25 0.22 0.31 0.26 0.26 0.33 0.36 0.39 0.40 0.43 0.45 0.45 0.44 0.41 0.39 0.40 0.40 0.40 0.41 0.42 0.42 0.42 0.43 0.43 0.41 0.39 0.37 0.35 0.34 0.33 0.32 0.30 0.29 0.29 0.29 0.28 0.27 0.28 0.29 0.30 0.32 0.34 0.39 0.45 0.47
0.37 0.36 0.29 0.21 0.22 0.24 0.32 0.23 0.27 0.38 0.42 0.44 0.46 0.45 0.44 0.41 0.40 0.40 0.41 0.42 0.41 0.41 0.43 0.44 0.44 0.43 0.42 0.40 0.38 0.37 0.34 0.29 0.29 0.28 0.26 0.24 0.22 0.23 0.22 0.22 0.22 0.22 0.21 0.21 0.22 0.23 0.25 0.28 0.29
0.38 0.33 0.41 0.34 0.35 0.28 0.29 0.32 0.36 0.41 0.40 0.42 0.41 0.41 0.38 0.39 0.40 0.41 0.44 0.45 0.44 0.44 0.44 0.45 0.42 0.39 0.36 0.35 0.33 0.31 0.29 0.27 0.26 0.25 0.24 0.23 0.22 0.21 0.19 0.18 0.17 0.19 0.19 0.17 0.17 0.16 0.16 0.17 0.20
0.43 0.45 0.33 0.35 0.24 0.21 0.24 0.24 0.24 0.29 0.32 0.34 0.35 0.37 0.39 0.41 0.43 0.46 0.48 0.48 0.47 0.45 0.43 0.40 0.36 0.33 0.31 0.28 0.27 0.25 0.25 0.25 0.25 0.24 0.22 0.21 0.20 0.18 0.16 0.15 0.15 0.15 0.15 0.16 0.15 0.15 0.15 0.14 0.14
0.36 0.34 0.35 0.34 0.30 0.22 0.18 0.18 0.29 0.28 0.31 0.32 0.35 0.38 0.39 0.41 0.42 0.43 0.42 0.40 0.37 0.33 0.29 0.26 0.24 0.22 0.21 0.20 0.19 0.18 0.17 0.17 0.18 0.17 0.18 0.19 0.18 0.16 0.15 0.14 0.14 0.14 0.13 0.13 0.13 0.13 0.13 0.13 0.12
0.39 0.34 0.34 0.26 0.23 0.27 0.26 0.20 0.36 0.35 0.36 0.37 0.37 0.40 0.42 0.43 0.43 0.41 0.39 0.33 0.28 0.25 0.26 0.26 0.25 0.23 0.22 0.21 0.19 0.18 0.18 0.17 0.17 0.16 0.16 0.16 0.15 0.15 0.14 0.14 0.13 0.12 0.12 0.13 0.13 0.13 0.13 0.12 0.12

GFSSGP_prec_pwat_024.txt.gz
Precipitable_Water
0.39 0.50 0.57 0.50 0.25 0.22 0.16 0.17 0.23 0.20 0.21 0.27 0.30 0.26 0.25 0.26 0.22 0.18 0.48 0.61 0.71 0.80 0.94 1.04 1.09 1.17 1.24 1.26 1.30 1.33 1.39 1.45 1.46 1.46 1.41 1.41 1.41 1.35 1.29 1.33 1.52 1.52 1.35 1.34 1.21 1.14 1.09 1.09 1.03
0.45 0.52 0.50 0.35 0.18 0.12 0.14 0.21 0.19 0.23 0.27 0.27 0.27 0.25 0.23 0.21 0.32 0.33 0.39 0.58 0.68 0.80 0.91 1.05 1.09 1.10 1.14 1.19 1.21 1.24 1.31 1.35 1.33 1.30 1.27 1.25 1.24 1.21 1.20 1.26 1.27 1.23 1.35 1.29 1.25 1.12 1.04 1.01 0.96
0.48 0.48 0.30 0.22 0.16 0.11 0.13 0.19 0.21 0.27 0.30 0.26 0.23 0.29 0.25 0.24 0.32 0.33 0.47 0.57 0.66 0.74 0.89 0.97 1.07 1.12 1.12 1.14 1.16 1.17 1.19 1.18 1.17 1.16 1.14 1.14 1.17 1.15 1.09 1.05 1.08 1.27 1.24 1.20 1.15 1.12 0.98 0.92 0.88
0.41 0.37 0.30 0.15 0.12 0.16 0.17 0.19 0.24 0.26 0.29 0.29 0.28 0.24 0.28 0.33 0.35 0.41 0.53 0.59 0.63 0.71 0.86 0.95 1.02 1.11 1.15 1.16 1.15 1.15 1.13 1.10 1.09 1.05 1.02 1.05 1.09 1.05 1.00 1.01 1.06 1.08 1.11 1.06 1.05 1.02 0.95 0.85 0.75
0.34 0.27 0.17 0.15 0.16 0.19 0.23 0.24 0.27 0.23 0.25 0.24 0.26 0.23 0.25 0.34 0.50 0.50 0.52 0.58 0.56 0.65 0.82 0.92 0.98 1.04 1.12 1.18 1.22 1.23 1.19 1.15 1.14 1.12 1.07 1.12 1.07 1.00 0.98 0.98 0.99 1.04 0.99 0.93 0.92 0.94 0.88 0.77 0.63
0.20 0.22 0.14 0.12 0.16 0.20 0.24 0.27 0.25 0.23 0.22 0.24 0.22 0.21 0.23 0.38 0.42 0.47 0.54 0.54 0.62 0.61 0.72 0.83 0.91 0.98 1.05 1.13 1.20 1.23 1.22 1.21 1.19 1.14 1.13 1.16 1.07 1.02 1.04 0.98 0.89 0.89 0.85 0.84 0.82 0.81 0.78 0.69 0.51
0.16 0.13 0.12 0.15 0.16 0.19 0.23 0.27 0.25 0.25 0.24 0.23 0.28 0.22 0.28 0.33 0.40 0.44 0.55 0.60 0.63 0.74 0.79 0.85 0.89 0.94 0.99 1.03 1.09 1.14 1.17 1.19 1.20 1.18 1.18 1.18 1.17 1.11 1.08 1.03 1.01 0.91 0.83 0.80 0.77 0.75 0.71 0.60 0.41
0.21 0.16 0.13 0.15 0.16 0.18 0.26 0.28 0.30 0.29 0.28 0.34 0.33 0.25 0.24 0.32 0.42 0.47 0.53 0.56 0.61 0.67 0.74 0.82 0.89 0.95 1.00 1.04 1.07 1.09 1.10 1.12 1.14 1.16 1.16 1.18 1.18 1.15 1.10 1.09 1.05 1.04 0.93 0.83 0.72 0.71 0.65 0.54 0.36
0.25 0.12 0.11 0.15 0.17 0.21 0.29 0.27 0.32 0.35 0.31 0.32 0.34 0.34 0.37 0.40 0.45 0.44 0.45 0.46 0.47 0.52 0.63 0.74 0.83 0.91 0.98 1.02 1.05 1.08 1.10 1.12 1.14 1.15 1.12 1.13 1.16 1.15 1.12 1.10 1.10 1.08 1.04 0.91 0.85 0.71 0.62 0.51 0.35
0.18 0.12 0.12 0.21 0.23 0.23 0.28 0.28 0.29 0.29 0.30 0.31 0.34 0.39 0.41 0.42 0.42 0.40 0.40 0.39 0.40 0.40 0.45 0.53 0.67 0.82 0.90 0.98 1.05 1.08 1.11 1.13 1.14 1.15 1.12 1.13 1.12 1.12 1.08 1.14 1.09 1.09 1.07 1.06 0.99 0.87 0.64 0.51 0.33
0.22 0.15 0.20 0.24 0.29 0.30 0.29 0.30 0.34 0.31 0.29 0.34 0.34 0.36 0.40 0.41 0.41 0.40 0.41 0.42 0.43 0.44 0.45 0.47 0.52 0.64 0.82 0.87 0.94 1.02 1.09 1.11 1.16 1.14 1.17 1.16 1.15 1.15 1.09 1.07 1.07 1.07 1.04 1.03 1.03 0.97 0.79 0.55 0.35
0.19 0.26 0.27 0.30 0.33 0.33 0.31 0.35 0.32 0.34 0.35 0.41 0.41 0.42 0.43 0.43 0.43 0.42 0.42 0.43 0.44 0.45 0.48 0.51 0.53 0.54 0.68 0.88 0.91 0.95 0.98 1.04 1.09 1.11 1.14 1.15 1.16 1.15 1.14 1.07 1.07 1.07 1.08 1.02 0.96 0.93 0.89 0.66 0.44
0.26 0.30 0.33 0.36 0.37 0.36 0.37 0.33 0.33 0.33 0.39 0.44 0.45 0.46 0.45 0.46 0.46 0.47 0.47 0.47 0.48 0.47 0.50 0.53 0.57 0.58 0.58 0.79 0.93 0.98 1.01 1.04 1.08 1.13 1.16 1.17 1.15 1.11 1.08 1.05 1.09 1.10 1.07 1.04 0.99 0.92 0.88 0.80 0.57
0.34 0.34 0.35 0.36 0.35 0.35 0.32 0.33 0.34 0.36 0.41 0.41 0.43 0.43 0.45 0.45 0.46 0.47 0.48 0.48 0.48 0.50 0.52 0.57 0.60 0.64 0.64 0.69 0.88 0.99 1.07 1.11 1.14 1.15 1.17 1.18 1.17 1.16 1.14 1.09 1.04 1.02 1.14 1.10 1.03 0.96 0.93 0.84 0.74
0.39 0.33 0.35 0.36 0.37 0.35 0.38 0.32 0.34 0.39 0.41 0.40 0.41 0.43 0.43 0.45 0.47 0.46 0.48 0.48 0.49 0.53 0.57 0.60 0.64 0.70 0.69 0.75 0.91 1.04 1.12 1.17 1.20 1.21 1.23 1.24 1.21 1.17 1.16 1.14 1.09 1.13 1.14 1.06 1.02 1.04 0.96 0.90 0.81
0.36 0.35 0.29 0.35 0.38 0.38 0.37 0.29 0.36 0.40 0.39 0.39 0.41 0.42 0.44 0.46 0.47 0.48 0.49 0.48 0.51 0.54 0.56 0.62 0.67 0.72 0.78 0.83 0.92 1.02 1.10 1.15 1.18 1.24 1.25 1.24 1.27 1.31 1.27 1.20 1.18 1.17 1.12 1.09 1.04 1.00 0.93 0.90 0.86
0.35 0.29 0.30 0.31 0.37 0.36 0.35 0.30 0.36 0.40 0.40 0.40 0.43 0.45 0.45 0.45 0.46 0.47 0.48 0.49 0.51 0.53 0.56 0.62 0.67 0.71 0.78 0.85 0.91 0.95 0.98 1.01 1.07 1.13 1.16 1.18 1.18 1.21 1.22 1.20 1.18 1.20 1.18 1.12 1.06 1.01 0.97 0.92 0.90
0.30 0.30 0.32 0.31 0.36 0.37 0.34 0.34 0.39 0.42 0.43 0.43 0.44 0.45 0.44 0.44 0.43 0.45 0.47 0.49 0.51 0.52 0.55 0.58 0.65 0.69 0.76 0.82 0.84 0.86 0.88 0.90 0.93 0.96 0.97 1.03 1.06 1.09 1.08 1.09 1.08 1.12 1.10 1.10 1.08 1.06 1.03 0.96 0.89
0.38 0.35 0.33 0.36 0.39 0.36 0.35 0.35 0.38 0.43 0.43 0.42 0.43 0.43 0.42 0.42 0.45 0.45 0.46 0.47 0.48 0.50 0.51 0.53 0.55 0.62 0.69 0.70 0.69 0.70 0.71 0.72 0.74 0.76 0.77 0.81 0.85 0.90 0.94 0.94 0.94 0.96 0.95 0.96 0.96 0.98 0.94 0.92 0.90
0.39 0.36 0.35 0.37 0.40 0.37 0.35 0.34 0.39 0.41 0.42 0.43 0.41 0.41 0.41 0.42 0.43 0.44 0.45 0.46 0.46 0.47 0.47 0.49 0.53 0.56 0.59 0.60 0.62 0.64 0.66 0.67 0.67 0.67 0.67 0.69 0.71 0.74 0.75 0.77 0.80 0.82 0.82 0.82 0.80 0.79 0.75 0.75 0.76
0.40 0.37 0.36 0.34 0.38 0.39 0.36 0.32 0.36 0.41 0.43 0.44 0.43 0.43 0.43 0.42 0.41 0.42 0.42 0.42 0.44 0.44 0.46 0.47 0.49 0.52 0.55 0.58 0.59 0.60 0.61 0.61 0.59 0.56 0.53 0.53 0.55 0.59 0.61 0.62 0.63 0.65 0.66 0.66 0.69 0.70 0.68 0.64 0.68
0.37 0.43 0.39 0.36 0.35 0.28 0.37 0.21 0.28 0.33 0.35 0.39 0.41 0.42 0.43 0.43 0.42 0.41 0.41 0.41 0.42 0.44 0.47 0.47 0.47 0.47 0.48 0.49 0.47 0.46 0.43 0.41 0.42 0.43 0.44 0.44 0.44 0.45 0.45 0.45 0.47 0.48 0.50 0.52 0.55 0.58 0.59 0.58 0.56
0.40 0.46 0.42 0.40 0.35 0.30 0.30 0.25 0.25 0.31 0.30 0.34 0.39 0.42 0.42 0.42 0.41 0.41 0.41 0.41 0.42 0.41 0.42 0.42 0.43 0.44 0.44 0.44 0.43 0.43 0.41 0.41 0.41 0.39 0.38 0.38 0.39 0.40 0.40 0.40 0.40 0.40 0.40 0.40 0.42 0.45 0.47 0.50 0.50
0.48 0.43 0.40 0.37 0.32 0.22 0.28 0.27 0.23 0.27 0.31 0.35 0.39 0.41 0.41 0.42 0.43 0.44 0.43 0.42 0.40 0.40 0.40 0.40 0.41 0.42 0.43 0.43 0.42 0.40 0.39 0.39 0.38 0.37 0.35 0.35 0.34 0.34 0.34 0.33 0.32 0.32 0.31 0.30 0.29 0.28 0.30 0.33 0.36
0.43 0.36 0.27 0.25 0.24 0.21 0.30 0.26 0.26 0.34 0.37 0.38 0.38 0.41 0.44 0.45 0.45 0.43 0.41 0.40 0.39 0.37 0.37 0.39 0.40 0.41 0.41 0.41 0.40 0.39 0.38 0.35 0.33 0.32 0.31 0.28 0.27 0.27 0.27 0.25 0.25 0.26 0.25 0.24 0.23 0.20 0.20 0.21 0.21
0.38 0.36 0.28 0.21 0.21 0.23 0.31 0.22 0.27 0.38 0.41 0.42 0.44 0.44 0.45 0.44 0.43 0.42 0.40 0.38 0.37 0.38 0.39 0.41 0.43 0.43 0.42 0.40 0.39 0.36 0.34 0.34 0.31 0.28 0.27 0.26 0.25 0.24 0.24 0.23 0.21 0.21 0.20 0.20 0.20 0.18 0.15 0.15 0.15
0.39 0.33 0.40 0.32 0.31 0.25 0.27 0.32 0.37 0.40 0.39 0.40 0.39 0.41 0.40 0.40 0.40 0.40 0.40 0.40 0.40 0.41 0.42 0.42 0.43 0.42 0.38 0.35 0.33 0.31 0.31 0.29 0.25 0.23 0.21 0.18 0.18 0.18 0.17 0.18 0.17 0.17 0.18 0.17 0.17 0.17 0.16 0.15 0.13
0.42 0.43 0.32 0.34 0.23 0.19 0.22 0.23 0.25 0.32 0.33 0.35 0.35 0.35 0.37 0.39 0.41 0.43 0.45 0.46 0.46 0.44 0.42 0.39 0.36 0.31 0.30 0.28 0.26 0.25 0.23 0.21 0.18 0.17 0.15 0.15 0.15 0.15 0.14 0.14 0.14 0.14 0.13 0.13 0.13 0.13 0.14 0.13 0.12
0.39 0.36 0.37 0.36 0.32 0.23 0.18 0.20 0.32 0.31 0.34 0.33 0.35 0.38 0.40 0.41 0.43 0.46 0.48 0.46 0.42 0.38 0.35 0.33 0.32 0.30 0.26 0.24 0.21 0.20 0.19 0.18 0.18 0.17 0.17 0.17 0.17 0.16 0.15 0.15 0.14 0.13 0.12 0.12 0.11 0.11 0.10 0.10 0.10
0.42 0.35 0.35 0.28 0.25 0.28 0.27 0.21 0.39 0.37 0.37 0.38 0.37 0.40 0.42 0.44 0.46 0.48 0.47 0.45 0.42 0.38 0.33 0.30 0.26 0.23 0.22 0.22 0.22 0.21 0.21 0.20 0.20 0.19 0.19 0.19 0.18 0.17 0.15 0.14 0.13 0.12 0.11 0.11 0.10 0.10 0.10 0.10 0.10

GFSSGP_prec_pwat_030.txt.gz
Precipitable_Water
0.37 0.48 0.57 0.47 0.25 0.20 0.16 0.18 0.24 0.22 0.22 0.28 0.29 0.25 0.22 0.24 0.21 0.17 0.47 0.61 0.74 0.83 1.06 1.18 1.28 1.32 1.35 1.42 1.47 1.51 1.51 1.53 1.54 1.51 1.46 1.43 1.46 1.43 1.46 1.51 1.45 1.33 1.35 1.29 1.19 1.11 1.04 1.02 1.04
0.46 0.52 0.49 0.32 0.18 0.13 0.15 0.22 0.21 0.24 0.26 0.30 0.30 0.28 0.26 0.21 0.30 0.35 0.45 0.60 0.74 0.86 1.03 1.13 1.20 1.25 1.28 1.33 1.34 1.33 1.34 1.37 1.38 1.33 1.29 1.26 1.24 1.28 1.33 1.28 1.19 1.31 1.26 1.19 1.16 1.08 0.98 0.94 0.92
0.52 0.47 0.33 0.23 0.16 0.13 0.15 0.20 0.23 0.26 0.28 0.27 0.27 0.30 0.28 0.27 0.35 0.40 0.56 0.63 0.74 0.84 1.02 1.15 1.16 1.20 1.23 1.24 1.23 1.22 1.26 1.31 1.27 1.19 1.13 1.10 1.09 1.09 1.10 1.05 1.09 1.16 1.12 1.08 1.04 1.04 0.97 0.87 0.80
0.43 0.36 0.27 0.16 0.13 0.15 0.17 0.20 0.25 0.26 0.27 0.29 0.29 0.24 0.29 0.41 0.42 0.51 0.64 0.71 0.70 0.82 0.94 1.10 1.17 1.19 1.21 1.22 1.21 1.22 1.24 1.23 1.16 1.10 1.05 1.03 1.03 1.00 0.97 1.01 1.11 1.05 0.95 0.88 0.86 0.93 0.91 0.80 0.70
0.36 0.29 0.16 0.14 0.14 0.17 0.20 0.24 0.26 0.25 0.24 0.24 0.27 0.22 0.27 0.40 0.55 0.61 0.66 0.71 0.70 0.79 0.93 1.01 1.10 1.17 1.20 1.20 1.21 1.22 1.20 1.21 1.19 1.15 1.12 1.14 1.13 1.03 0.98 0.98 0.97 0.97 0.84 0.77 0.74 0.76 0.78 0.68 0.60
0.23 0.23 0.14 0.13 0.15 0.19 0.22 0.26 0.25 0.23 0.23 0.25 0.24 0.24 0.29 0.44 0.46 0.59 0.67 0.69 0.80 0.81 0.92 1.00 1.05 1.11 1.16 1.18 1.20 1.23 1.23 1.24 1.23 1.21 1.17 1.23 1.31 1.17 1.11 1.07 1.01 0.96 0.90 0.81 0.76 0.68 0.68 0.58 0.49
0.16 0.14 0.14 0.15 0.15 0.18 0.22 0.27 0.25 0.25 0.26 0.28 0.31 0.27 0.33 0.38 0.48 0.62 0.65 0.68 0.70 0.81 0.90 0.98 1.05 1.09 1.13 1.17 1.18 1.22 1.25 1.26 1.25 1.24 1.24 1.23 1.32 1.26 1.14 1.09 1.08 1.05 1.01 0.93 0.83 0.66 0.62 0.51 0.40
0.18 0.16 0.13 0.16 0.15 0.17 0.24 0.26 0.30 0.28 0.28 0.35 0.35 0.28 0.31 0.39 0.46 0.55 0.56 0.55 0.57 0.62 0.69 0.76 0.91 1.01 1.09 1.15 1.18 1.20 1.24 1.25 1.25 1.23 1.23 1.22 1.25 1.24 1.18 1.15 1.11 1.12 1.07 1.03 0.95 0.87 0.66 0.52 0.36
0.21 0.12 0.11 0.14 0.16 0.19 0.26 0.25 0.31 0.35 0.30 0.32 0.35 0.36 0.39 0.44 0.47 0.47 0.48 0.48 0.49 0.51 0.56 0.63 0.71 0.83 0.92 1.02 1.12 1.17 1.22 1.28 1.27 1.24 1.24 1.24 1.22 1.27 1.23 1.17 1.13 1.09 1.07 1.04 1.02 0.97 0.86 0.59 0.34
0.16 0.12 0.12 0.19 0.21 0.22 0.26 0.27 0.29 0.28 0.29 0.30 0.35 0.40 0.43 0.45 0.45 0.43 0.43 0.43 0.44 0.46 0.49 0.54 0.59 0.66 0.83 0.91 0.95 1.03 1.12 1.20 1.28 1.31 1.31 1.31 1.28 1.29 1.28 1.16 1.12 1.10 1.13 1.08 1.00 0.97 0.95 0.85 0.53
0.18 0.13 0.16 0.21 0.24 0.27 0.28 0.29 0.31 0.29 0.28 0.32 0.33 0.37 0.42 0.44 0.45 0.44 0.45 0.46 0.46 0.49 0.51 0.54 0.56 0.61 0.68 0.89 1.05 1.07 1.09 1.12 1.19 1.27 1.29 1.33 1.25 1.24 1.21 1.20 1.17 1.19 1.11 1.09 1.04 0.98 0.93 0.89 0.81
0.16 0.21 0.22 0.25 0.29 0.29 0.29 0.32 0.31 0.33 0.34 0.38 0.39 0.41 0.43 0.44 0.45 0.46 0.46 0.47 0.49 0.51 0.53 0.56 0.57 0.59 0.62 0.69 1.01 1.08 1.10 1.14 1.18 1.24 1.29 1.26 1.25 1.21 1.20 1.20 1.19 1.17 1.18 1.12 1.10 1.05 0.95 0.91 0.85
0.21 0.24 0.27 0.31 0.32 0.33 0.35 0.33 0.34 0.34 0.38 0.40 0.41 0.42 0.42 0.43 0.44 0.46 0.47 0.49 0.52 0.53 0.57 0.59 0.62 0.63 0.65 0.62 0.96 1.06 1.10 1.13 1.17 1.18 1.18 1.24 1.16 1.14 1.22 1.22 1.25 1.22 1.17 1.13 1.09 1.06 1.01 0.96 0.89
0.29 0.29 0.32 0.35 0.35 0.36 0.34 0.34 0.36 0.36 0.40 0.40 0.41 0.42 0.43 0.43 0.44 0.46 0.46 0.48 0.52 0.56 0.59 0.65 0.67 0.70 0.67 0.66 0.93 1.06 1.12 1.11 1.09 1.07 1.07 1.12 1.19 1.18 1.19 1.22 1.24 1.21 1.19 1.17 1.13 1.10 1.05 1.00 0.97
0.34 0.30 0.34 0.35 0.36 0.35 0.38 0.33 0.33 0.38 0.41 0.40 0.41 0.42 0.42 0.43 0.45 0.46 0.48 0.49 0.52 0.57 0.63 0.66 0.69 0.79 0.82 0.87 0.94 0.99 1.03 1.06 1.05 1.06 1.12 1.14 1.18 1.17 1.16 1.17 1.19 1.21 1.24 1.19 1.15 1.10 1.07 1.00 0.97
0.32 0.33 0.28 0.35 0.37 0.38 0.37 0.28 0.35 0.39 0.39 0.38 0.39 0.41 0.42 0.44 0.47 0.50 0.50 0.51 0.53 0.58 0.63 0.68 0.73 0.77 0.80 0.84 0.91 0.96 0.99 1.00 1.01 1.03 1.05 1.08 1.11 1.16 1.14 1.14 1.16 1.22 1.22 1.18 1.17 1.11 1.07 1.06 1.00
0.32 0.26 0.29 0.33 0.39 0.38 0.36 0.32 0.37 0.40 0.39 0.39 0.41 0.43 0.45 0.46 0.48 0.50 0.51 0.51 0.53 0.59 0.64 0.68 0.73 0.75 0.79 0.84 0.87 0.91 0.93 0.96 0.97 0.96 0.97 1.01 1.04 1.06 1.06 1.09 1.14 1.16 1.19 1.13 1.15 1.10 1.04 1.02 0.98
0.27 0.28 0.31 0.32 0.37 0.39 0.36 0.36 0.39 0.42 0.41 0.40 0.42 0.44 0.45 0.45 0.46 0.49 0.50 0.51 0.54 0.61 0.67 0.71 0.74 0.77 0.80 0.82 0.82 0.84 0.86 0.85 0.86 0.85 0.88 0.90 0.92 0.93 0.93 0.94 0.94 0.95 0.95 0.92 0.94 0.89 0.90 0.83 0.80
0.34 0.33 0.32 0.35 0.39 0.36 0.36 0.37 0.40 0.42 0.41 0.40 0.42 0.43 0.44 0.44 0.47 0.48 0.49 0.50 0.54 0.59 0.65 0.69 0.72 0.76 0.79 0.77 0.74 0.72 0.68 0.69 0.71 0.73 0.73 0.71 0.72 0.75 0.76 0.75 0.77 0.78 0.76 0.76 0.78 0.77 0.73 0.69 0.70
0.35 0.32 0.31 0.36 0.38 0.37 0.36 0.35 0.41 0.43 0.42 0.42 0.42 0.43 0.43 0.44 0.45 0.45 0.45 0.48 0.52 0.55 0.62 0.67 0.69 0.69 0.72 0.72 0.70 0.68 0.63 0.61 0.60 0.60 0.59 0.58 0.59 0.59 0.58 0.58 0.58 0.59 0.58 0.58 0.59 0.60 0.59 0.59 0.57
0.35 0.33 0.33 0.35 0.39 0.40 0.38 0.36 0.40 0.43 0.44 0.44 0.44 0.44 0.44 0.44 0.44 0.43 0.43 0.45 0.49 0.52 0.55 0.57 0.61 0.65 0.68 0.69 0.68 0.65 0.60 0.54 0.47 0.45 0.43 0.44 0.45 0.46 0.46 0.46 0.46 0.46 0.47 0.46 0.49 0.51 0.52 0.49 0.54
0.33 0.43 0.41 0.39 0.37 0.31 0.42 0.28 0.36 0.38 0.38 0.39 0.40 0.42 0.42 0.43 0.44 0.43 0.43 0.43 0.45 0.48 0.52 0.54 0.56 0.57 0.59 0.60 0.55 0.49 0.43 0.40 0.41 0.41 0.42 0.41 0.41 0.40 0.40 0.39 0.39 0.38 0.38 0.37 0.36 0.36 0.36 0.36 0.35
0.42 0.48 0.45 0.45 0.41 0.39 0.38 0.32 0.33 0.39 0.33 0.35 0.38 0.40 0.42 0.43 0.42 0.41 0.42 0.43 0.43 0.45 0.46 0.48 0.49 0.50 0.50 0.47 0.44 0.42 0.41 0.41 0.41 0.40 0.37 0.36 0.35 0.36 0.35 0.34 0.34 0.33 0.31 0.28 0.26 0.25 0.25 0.26 0.26
0.52 0.48 0.48 0.46 0.42 0.30 0.36 0.34 0.30 0.32 0.33 0.35 0.39 0.41 0.41 0.41 0.42 0.42 0.43 0.42 0.41 0.42 0.42 0.42 0.41 0.41 0.42 0.41 0.40 0.40 0.40 0.39 0.37 0.36 0.34 0.33 0.34 0.33 0.32 0.29 0.26 0.24 0.22 0.22 0.22 0.21 0.20 0.18 0.18
0.50 0.45 0.35 0.31 0.31 0.27 0.36 0.33 0.32 0.36 0.37 0.38 0.38 0.40 0.42 0.42 0.41 0.39 0.38 0.39 0.39 0.39 0.39 0.40 0.39 0.40 0.41 0.39 0.39 0.39 0.37 0.36 0.33 0.32 0.32 0.32 0.29 0.27 0.25 0.23 0.21 0.20 0.18 0.17 0.17 0.16 0.16 0.15 0.15
0.48 0.45 0.36 0.26 0.26 0.28 0.36 0.27 0.31 0.40 0.42 0.42 0.43 0.43 0.42 0.41 0.41 0.41 0.41 0.40 0.39 0.38 0.38 0.38 0.39 0.39 0.37 0.38 0.38 0.36 0.34 0.33 0.31 0.32 0.30 0.29 0.28 0.26 0.24 0.22 0.21 0.20 0.18 0.17 0.16 0.15 0.15 0.15 0.14
0.46 0.40 0.49 0.38 0.37 0.31 0.32 0.34 0.40 0.42 0.41 0.41 0.41 0.42 0.41 0.42 0.43 0.42 0.41 0.39 0.37 0.37 0.36 0.35 0.36 0.38 0.39 0.37 0.35 0.33 0.32 0.33 0.32 0.32 0.29 0.27 0.25 0.22 0.20 0.18 0.17 0.17 0.16 0.15 0.15 0.14 0.14 0.14 0.14
0.49 0.52 0.39 0.40 0.29 0.26 0.29 0.30 0.30 0.36 0.38 0.41 0.41 0.41 0.43 0.43 0.42 0.42 0.40 0.37 0.37 0.36 0.36 0.37 0.39 0.37 0.35 0.34 0.33 0.33 0.34 0.34 0.31 0.29 0.26 0.23 0.20 0.20 0.19 0.18 0.17 0.16 0.15 0.14 0.13 0.13 0.13 0.12 0.12
0.47 0.44 0.45 0.44 0.39 0.30 0.26 0.28 0.39 0.38 0.39 0.39 0.41 0.43 0.43 0.42 0.42 0.41 0.40 0.39 0.37 0.38 0.39 0.40 0.37 0.36 0.35 0.36 0.36 0.34 0.33 0.32 0.29 0.27 0.23 0.22 0.21 0.20 0.19 0.18 0.17 0.16 0.15 0.14 0.13 0.13 0.12 0.12 0.12
0.53 0.47 0.46 0.38 0.35 0.36 0.33 0.29 0.43 0.42 0.43 0.43 0.42 0.42 0.44 0.45 0.44 0.43 0.42 0.41 0.40 0.40 0.42 0.40 0.39 0.38 0.36 0.35 0.33 0.31 0.30 0.28 0.26 0.24 0.23 0.23 0.22 0.21 0.20 0.18 0.18 0.17 0.15 0.14 0.13 0.12 0.13 0.12 0.11

GFSSGP_prec_pwat_033.txt.gz
Precipitable_Water
0.39 0.47 0.55 0.46 0.31 0.24 0.18 0.19 0.24 0.23 0.24 0.28 0.28 0.27 0.22 0.25 0.24 0.21 0.54 0.74 0.79 0.96 1.14 1.22 1.31 1.37 1.44 1.50 1.52 1.54 1.53 1.54 1.53 1.50 1.46 1.44 1.43 1.41 1.51 1.45 1.32 1.31 1.26 1.24 1.15 1.09 1.02 0.98 0.99
0.44 0.49 0.49 0.35 0.24 0.16 0.17 0.21 0.22 0.24 0.26 0.29 0.27 0.28 0.26 0.22 0.33 0.40 0.52 0.63 0.78 0.93 1.13 1.21 1.28 1.32 1.32 1.37 1.41 1.42 1.41 1.41 1.41 1.34 1.26 1.22 1.22 1.28 1.30 1.19 1.18 1.22 1.20 1.18 1.15 1.06 0.95 0.87 0.87
0.52 0.47 0.37 0.26 0.20 0.17 0.16 0.21 0.23 0.23 0.26 0.28 0.27 0.31 0.30 0.28 0.39 0.46 0.61 0.67 0.80 0.89 1.09 1.20 1.24 1.27 1.30 1.30 1.28 1.27 1.28 1.32 1.30 1.21 1.13 1.08 1.08 1.11 1.07 1.04 1.12 1.09 1.05 0.97 0.92 1.01 0.92 0.82 0.76
0.44 0.39 0.27 0.21 0.17 0.18 0.19 0.21 0.26 0.24 0.25 0.29 0.30 0.25 0.31 0.48 0.47 0.59 0.72 0.74 0.80 0.90 1.08 1.20 1.20 1.24 1.25 1.27 1.22 1.21 1.25 1.29 1.20 1.12 1.10 1.09 1.07 1.01 1.01 1.07 1.11 1.00 0.91 0.82 0.75 0.87 0.83 0.74 0.68
0.38 0.30 0.20 0.16 0.16 0.16 0.20 0.24 0.27 0.26 0.24 0.26 0.27 0.25 0.31 0.43 0.59 0.66 0.68 0.75 0.78 0.90 1.02 1.17 1.20 1.24 1.28 1.29 1.26 1.25 1.26 1.24 1.19 1.15 1.14 1.18 1.20 1.08 1.05 1.01 1.01 0.93 0.88 0.80 0.71 0.70 0.67 0.61 0.57
0.28 0.26 0.16 0.15 0.16 0.17 0.22 0.24 0.24 0.25 0.24 0.23 0.25 0.25 0.33 0.47 0.49 0.64 0.70 0.78 0.84 0.87 0.98 1.08 1.15 1.20 1.26 1.25 1.28 1.29 1.27 1.29 1.34 1.28 1.18 1.24 1.24 1.29 1.21 1.10 0.99 0.96 0.93 0.86 0.75 0.62 0.59 0.51 0.44
0.23 0.18 0.17 0.17 0.16 0.17 0.21 0.25 0.24 0.24 0.25 0.27 0.31 0.28 0.36 0.40 0.49 0.63 0.64 0.64 0.68 0.83 0.93 0.99 1.05 1.11 1.17 1.22 1.23 1.27 1.27 1.28 1.30 1.29 1.28 1.24 1.29 1.29 1.20 1.16 1.11 1.06 1.03 1.00 0.90 0.82 0.58 0.47 0.37
0.20 0.17 0.13 0.15 0.16 0.18 0.23 0.24 0.28 0.28 0.28 0.35 0.34 0.29 0.33 0.40 0.48 0.59 0.57 0.57 0.59 0.65 0.71 0.79 0.95 1.03 1.08 1.15 1.17 1.20 1.24 1.28 1.30 1.30 1.27 1.25 1.24 1.24 1.16 1.13 1.16 1.12 1.06 1.02 0.98 0.94 0.83 0.53 0.34
0.20 0.14 0.13 0.15 0.16 0.21 0.24 0.23 0.29 0.33 0.30 0.32 0.34 0.36 0.40 0.43 0.47 0.50 0.52 0.50 0.52 0.54 0.60 0.65 0.71 0.82 0.98 1.07 1.16 1.19 1.24 1.29 1.32 1.30 1.24 1.23 1.26 1.28 1.29 1.27 1.18 1.12 1.06 1.03 1.00 0.95 0.94 0.80 0.51
0.18 0.14 0.15 0.20 0.21 0.22 0.24 0.26 0.29 0.28 0.28 0.29 0.33 0.39 0.42 0.44 0.45 0.45 0.45 0.45 0.47 0.49 0.52 0.56 0.62 0.68 0.77 0.93 1.02 1.07 1.14 1.20 1.27 1.30 1.33 1.32 1.36 1.40 1.38 1.29 1.22 1.13 1.11 1.09 1.04 0.97 0.90 0.87 0.76
0.19 0.15 0.17 0.19 0.22 0.25 0.25 0.27 0.31 0.28 0.27 0.31 0.33 0.37 0.40 0.43 0.44 0.46 0.46 0.48 0.49 0.52 0.54 0.56 0.58 0.62 0.68 0.82 0.98 1.03 1.06 1.10 1.19 1.27 1.39 1.42 1.38 1.36 1.26 1.21 1.17 1.16 1.11 1.12 1.07 1.03 0.98 0.90 0.83
0.17 0.18 0.19 0.23 0.26 0.26 0.26 0.31 0.29 0.30 0.33 0.38 0.38 0.40 0.40 0.42 0.44 0.46 0.46 0.48 0.49 0.53 0.57 0.62 0.63 0.64 0.66 0.70 1.00 1.07 1.07 1.13 1.19 1.28 1.34 1.38 1.34 1.36 1.30 1.23 1.22 1.21 1.17 1.14 1.10 1.05 1.00 0.96 0.91
0.20 0.22 0.24 0.27 0.28 0.30 0.32 0.29 0.30 0.33 0.39 0.40 0.39 0.40 0.40 0.43 0.45 0.47 0.48 0.50 0.52 0.54 0.60 0.65 0.68 0.68 0.69 0.66 0.94 1.13 1.15 1.18 1.21 1.22 1.24 1.28 1.29 1.28 1.31 1.29 1.30 1.29 1.27 1.21 1.13 1.06 1.02 1.01 0.94
0.28 0.26 0.26 0.29 0.31 0.34 0.32 0.33 0.36 0.36 0.41 0.39 0.39 0.40 0.42 0.43 0.44 0.46 0.47 0.48 0.51 0.57 0.63 0.67 0.68 0.74 0.67 0.72 0.96 1.03 1.08 1.07 1.07 1.09 1.10 1.12 1.15 1.15 1.17 1.14 1.20 1.23 1.25 1.24 1.18 1.12 1.07 1.02 0.98
0.30 0.26 0.30 0.32 0.35 0.35 0.38 0.32 0.32 0.39 0.42 0.39 0.39 0.41 0.42 0.43 0.44 0.45 0.47 0.49 0.53 0.60 0.67 0.68 0.72 0.77 0.78 0.83 0.91 0.99 1.02 1.03 1.00 0.99 1.03 1.05 1.09 1.13 1.15 1.16 1.17 1.20 1.23 1.21 1.20 1.18 1.15 1.08 1.03
0.28 0.29 0.26 0.36 0.37 0.38 0.37 0.29 0.38 0.41 0.39 0.38 0.39 0.41 0.42 0.43 0.44 0.48 0.50 0.52 0.57 0.63 0.65 0.70 0.74 0.75 0.77 0.82 0.89 0.93 0.99 1.01 1.01 1.01 1.02 1.04 1.06 1.08 1.09 1.10 1.09 1.15 1.20 1.20 1.16 1.12 1.10 1.08 1.06
0.29 0.23 0.29 0.32 0.37 0.37 0.36 0.33 0.40 0.41 0.40 0.39 0.40 0.42 0.42 0.44 0.47 0.50 0.52 0.53 0.57 0.63 0.66 0.68 0.72 0.74 0.77 0.83 0.88 0.92 0.93 0.93 0.95 0.97 0.98 0.99 0.98 1.01 1.01 1.00 1.04 1.08 1.07 1.09 1.09 1.08 0.99 0.94 0.89
0.27 0.28 0.30 0.30 0.35 0.37 0.36 0.36 0.40 0.42 0.41 0.41 0.43 0.43 0.43 0.44 0.46 0.49 0.51 0.54 0.59 0.65 0.69 0.71 0.74 0.77 0.80 0.81 0.83 0.83 0.85 0.86 0.88 0.84 0.83 0.85 0.87 0.88 0.88 0.86 0.87 0.89 0.85 0.85 0.88 0.83 0.83 0.76 0.73
0.33 0.32 0.31 0.35 0.39 0.36 0.36 0.36 0.39 0.42 0.42 0.42 0.43 0.44 0.43 0.44 0.47 0.50 0.52 0.54 0.58 0.65 0.67 0.70 0.73 0.77 0.79 0.78 0.76 0.74 0.71 0.73 0.71 0.70 0.72 0.68 0.67 0.69 0.71 0.69 0.68 0.67 0.63 0.63 0.65 0.66 0.64 0.60 0.58
0.35 0.32 0.31 0.37 0.39 0.37 0.35 0.34 0.39 0.41 0.40 0.44 0.44 0.44 0.44 0.44 0.45 0.48 0.50 0.53 0.54 0.61 0.66 0.69 0.72 0.74 0.73 0.71 0.69 0.68 0.66 0.65 0.64 0.59 0.55 0.55 0.55 0.54 0.52 0.52 0.51 0.50 0.48 0.49 0.49 0.52 0.52 0.53 0.52
0.34 0.32 0.33 0.34 0.38 0.39 0.37 0.32 0.36 0.42 0.45 0.46 0.47 0.47 0.46 0.44 0.44 0.46 0.47 0.50 0.53 0.58 0.62 0.66 0.69 0.69 0.69 0.69 0.67 0.65 0.60 0.56 0.49 0.46 0.43 0.43 0.43 0.43 0.43 0.41 0.40 0.38 0.37 0.36 0.36 0.37 0.38 0.37 0.43
0.32 0.40 0.38 0.37 0.35 0.30 0.41 0.25 0.36 0.42 0.44 0.46 0.45 0.45 0.45 0.44 0.45 0.46 0.46 0.47 0.50 0.55 0.62 0.64 0.64 0.64 0.66 0.67 0.63 0.56 0.48 0.40 0.38 0.38 0.39 0.38 0.38 0.36 0.35 0.34 0.34 0.33 0.33 0.32 0.31 0.31 0.30 0.30 0.28
0.39 0.46 0.42 0.42 0.38 0.38 0.38 0.33 0.35 0.44 0.41 0.42 0.45 0.45 0.45 0.45 0.45 0.45 0.46 0.46 0.49 0.54 0.56 0.59 0.60 0.60 0.60 0.58 0.53 0.44 0.39 0.39 0.37 0.37 0.36 0.35 0.34 0.34 0.33 0.32 0.31 0.31 0.31 0.30 0.28 0.27 0.25 0.24 0.22
0.51 0.47 0.47 0.46 0.42 0.30 0.36 0.37 0.32 0.37 0.40 0.42 0.45 0.45 0.45 0.45 0.45 0.45 0.46 0.46 0.47 0.51 0.52 0.52 0.52 0.51 0.50 0.46 0.42 0.41 0.39 0.38 0.37 0.36 0.33 0.31 0.31 0.32 0.31 0.30 0.29 0.28 0.26 0.25 0.23 0.20 0.18 0.17 0.16
0.49 0.45 0.36 0.32 0.32 0.28 0.39 0.36 0.35 0.42 0.44 0.43 0.43 0.44 0.45 0.45 0.43 0.42 0.43 0.43 0.43 0.43 0.44 0.45 0.44 0.42 0.41 0.41 0.41 0.41 0.39 0.37 0.34 0.32 0.32 0.31 0.29 0.29 0.29 0.28 0.26 0.24 0.22 0.20 0.19 0.17 0.16 0.16 0.15
0.45 0.45 0.37 0.29 0.30 0.33 0.40 0.30 0.34 0.45 0.48 0.47 0.47 0.46 0.45 0.44 0.43 0.42 0.42 0.41 0.41 0.42 0.42 0.41 0.40 0.39 0.41 0.41 0.40 0.39 0.37 0.34 0.34 0.33 0.32 0.31 0.31 0.30 0.28 0.26 0.25 0.23 0.20 0.17 0.16 0.16 0.15 0.16 0.15
0.43 0.40 0.50 0.41 0.41 0.34 0.34 0.36 0.41 0.44 0.45 0.46 0.46 0.46 0.44 0.44 0.44 0.43 0.43 0.42 0.41 0.41 0.41 0.39 0.39 0.39 0.39 0.38 0.38 0.38 0.35 0.33 0.33 0.34 0.34 0.32 0.30 0.29 0.28 0.26 0.24 0.22 0.19 0.17 0.17 0.16 0.16 0.16 0.16
0.48 0.52 0.41 0.42 0.31 0.29 0.32 0.33 0.33 0.39 0.41 0.44 0.45 0.45 0.46 0.46 0.44 0.44 0.43 0.42 0.42 0.41 0.39 0.38 0.38 0.37 0.39 0.39 0.38 0.34 0.33 0.34 0.34 0.34 0.34 0.32 0.30 0.29 0.27 0.24 0.21 0.19 0.18 0.17 0.16 0.16 0.15 0.14 0.14
0.46 0.44 0.46 0.45 0.41 0.32 0.29 0.31 0.43 0.43 0.44 0.44 0.46 0.47 0.47 0.46 0.45 0.45 0.44 0.42 0.41 0.40 0.38 0.38 0.37 0.38 0.40 0.38 0.36 0.35 0.35 0.35 0.35 0.34 0.32 0.30 0.27 0.25 0.23 0.22 0.20 0.18 0.18 0.17 0.16 0.15 0.14 0.13 0.13
0.50 0.47 0.47 0.39 0.37 0.40 0.38 0.31 0.47 0.47 0.47 0.46 0.45 0.47 0.48 0.48 0.46 0.45 0.45 0.44 0.42 0.40 0.39 0.38 0.39 0.40 0.39 0.37 0.37 0.37 0.37 0.35 0.34 0.32 0.29 0.27 0.25 0.24 0.22 0.21 0.20 0.19 0.19 0.18 0.16 0.15 0.15 0.14 0.13